Year,Month,Day,Hour,Minute,Value (Times are PST for temperature in C)
2017,06,25,00,00,16.90
2017,06,25,00,01,16.90
2017,06,25,00,02,16.80
2017,06,25,00,03,16.80
2017,06,25,00,04,16.80
2017,06,25,00,05,16.80
2017,06,25,00,06,16.80
2017,06,25,00,07,16.80
2017,06,25,00,08,16.80
2017,06,25,00,09,16.80
2017,06,25,00,10,16.80
2017,06,25,00,11,16.80
2017,06,25,00,12,16.70
2017,06,25,00,13,16.70
2017,06,25,00,14,16.70
2017,06,25,00,15,16.70
2017,06,25,00,16,16.70
2017,06,25,00,17,16.70
2017,06,25,00,18,16.70
2017,06,25,00,19,16.70
2017,06,25,00,20,16.60
2017,06,25,00,21,16.60
2017,06,25,00,22,16.60
2017,06,25,00,23,16.60
2017,06,25,00,24,16.60
2017,06,25,00,25,16.60
2017,06,25,00,26,16.60
2017,06,25,00,27,16.50
2017,06,25,00,28,16.50
2017,06,25,00,29,16.50
2017,06,25,00,30,16.40
2017,06,25,00,31,16.40
2017,06,25,00,32,16.40
2017,06,25,00,33,16.40
2017,06,25,00,34,16.40
2017,06,25,00,35,16.40
2017,06,25,00,36,16.30
2017,06,25,00,37,16.30
2017,06,25,00,38,16.30
2017,06,25,00,39,16.30
2017,06,25,00,40,16.30
2017,06,25,00,41,16.30
2017,06,25,00,42,16.30
2017,06,25,00,43,16.30
2017,06,25,00,44,16.30
2017,06,25,00,45,16.30
2017,06,25,00,46,16.20
2017,06,25,00,47,16.20
2017,06,25,00,48,16.20
2017,06,25,00,49,16.20
2017,06,25,00,50,16.20
2017,06,25,00,51,16.20
2017,06,25,00,52,16.10
2017,06,25,00,53,16.10
2017,06,25,00,54,16.10
2017,06,25,00,55,16.10
2017,06,25,00,56,16.10
2017,06,25,00,57,16.10
2017,06,25,00,58,16.10
2017,06,25,00,59,16.10
2017,06,25,01,00,16.00
2017,06,25,01,01,16.00
2017,06,25,01,02,16.00
2017,06,25,01,03,16.00
2017,06,25,01,04,15.90
2017,06,25,01,05,15.90
2017,06,25,01,06,15.90
2017,06,25,01,07,15.90
2017,06,25,01,08,15.90
2017,06,25,01,09,15.90
2017,06,25,01,10,15.90
2017,06,25,01,11,15.90
2017,06,25,01,12,15.90
2017,06,25,01,13,15.90
2017,06,25,01,14,15.90
2017,06,25,01,15,15.80
2017,06,25,01,16,15.80
2017,06,25,01,17,15.80
2017,06,25,01,18,15.80
2017,06,25,01,19,15.80
2017,06,25,01,20,15.80
2017,06,25,01,21,15.80
2017,06,25,01,22,15.70
2017,06,25,01,23,15.70
2017,06,25,01,24,15.70
2017,06,25,01,25,15.70
2017,06,25,01,26,15.70
2017,06,25,01,27,15.70
2017,06,25,01,28,15.70
2017,06,25,01,29,15.70
2017,06,25,01,30,15.70
2017,06,25,01,31,15.70
2017,06,25,01,32,15.70
2017,06,25,01,33,15.70
2017,06,25,01,34,15.60
2017,06,25,01,35,15.60
2017,06,25,01,36,15.60
2017,06,25,01,37,15.60
2017,06,25,01,38,15.50
2017,06,25,01,39,15.50
2017,06,25,01,40,15.50
2017,06,25,01,41,15.50
2017,06,25,01,42,15.50
2017,06,25,01,43,15.40
2017,06,25,01,44,15.40
2017,06,25,01,45,15.40
2017,06,25,01,46,15.40
2017,06,25,01,47,15.40
2017,06,25,01,48,15.40
2017,06,25,01,49,15.40
2017,06,25,01,50,15.40
2017,06,25,01,51,15.30
2017,06,25,01,52,15.30
2017,06,25,01,53,15.30
2017,06,25,01,54,15.30
2017,06,25,01,55,15.30
2017,06,25,01,56,15.30
2017,06,25,01,57,15.30
2017,06,25,01,58,15.30
2017,06,25,01,59,15.20
2017,06,25,02,00,15.20
2017,06,25,02,01,15.20
2017,06,25,02,02,15.20
2017,06,25,02,03,15.20
2017,06,25,02,04,15.20
2017,06,25,02,05,15.20
2017,06,25,02,06,15.20
2017,06,25,02,07,15.20
2017,06,25,02,08,15.20
2017,06,25,02,09,15.20
2017,06,25,02,10,15.20
2017,06,25,02,11,15.20
2017,06,25,02,12,15.20
2017,06,25,02,13,15.20
2017,06,25,02,14,15.10
2017,06,25,02,15,15.20
2017,06,25,02,16,15.20
2017,06,25,02,17,15.20
2017,06,25,02,18,15.20
2017,06,25,02,19,15.20
2017,06,25,02,20,15.20
2017,06,25,02,21,15.20
2017,06,25,02,22,15.20
2017,06,25,02,23,15.20
2017,06,25,02,24,15.10
2017,06,25,02,25,15.20
2017,06,25,02,26,15.10
2017,06,25,02,27,15.10
2017,06,25,02,28,15.10
2017,06,25,02,29,15.10
2017,06,25,02,30,15.10
2017,06,25,02,31,15.10
2017,06,25,02,32,15.10
2017,06,25,02,33,15.10
2017,06,25,02,34,15.10
2017,06,25,02,35,15.00
2017,06,25,02,36,15.00
2017,06,25,02,37,14.90
2017,06,25,02,38,14.90
2017,06,25,02,39,14.90
2017,06,25,02,40,14.90
2017,06,25,02,41,14.90
2017,06,25,02,42,14.80
2017,06,25,02,43,14.80
2017,06,25,02,44,14.80
2017,06,25,02,45,14.80
2017,06,25,02,46,14.80
2017,06,25,02,47,14.80
2017,06,25,02,48,14.80
2017,06,25,02,49,14.80
2017,06,25,02,50,14.80
2017,06,25,02,51,14.70
2017,06,25,02,52,14.70
2017,06,25,02,53,14.70
2017,06,25,02,54,14.70
2017,06,25,02,55,14.70
2017,06,25,02,56,14.70
2017,06,25,02,57,14.70
2017,06,25,02,58,14.70
2017,06,25,02,59,14.70
2017,06,25,03,00,14.70
2017,06,25,03,01,14.70
2017,06,25,03,02,14.70
2017,06,25,03,03,14.70
2017,06,25,03,04,14.70
2017,06,25,03,05,14.70
2017,06,25,03,06,14.70
2017,06,25,03,07,14.70
2017,06,25,03,08,14.70
2017,06,25,03,09,14.70
2017,06,25,03,10,14.70
2017,06,25,03,11,14.70
2017,06,25,03,12,14.70
2017,06,25,03,13,14.70
2017,06,25,03,14,14.70
2017,06,25,03,15,14.70
2017,06,25,03,16,14.70
2017,06,25,03,17,14.70
2017,06,25,03,18,14.70
2017,06,25,03,19,14.70
2017,06,25,03,20,14.70
2017,06,25,03,21,14.70
2017,06,25,03,22,14.70
2017,06,25,03,23,14.70
2017,06,25,03,24,14.70
2017,06,25,03,25,14.70
2017,06,25,03,26,14.60
2017,06,25,03,27,14.60
2017,06,25,03,28,14.60
2017,06,25,03,29,14.60
2017,06,25,03,30,14.60
2017,06,25,03,31,14.50
2017,06,25,03,32,14.50
2017,06,25,03,33,14.50
2017,06,25,03,34,14.50
2017,06,25,03,35,14.40
2017,06,25,03,36,14.40
2017,06,25,03,37,14.40
2017,06,25,03,38,14.40
2017,06,25,03,39,14.30
2017,06,25,03,40,14.30
2017,06,25,03,41,14.30
2017,06,25,03,42,14.30
2017,06,25,03,43,14.30
2017,06,25,03,44,14.30
2017,06,25,03,45,14.30
2017,06,25,03,46,14.30
2017,06,25,03,47,14.30
2017,06,25,03,48,14.30
2017,06,25,03,49,14.30
2017,06,25,03,50,14.30
2017,06,25,03,51,14.20
2017,06,25,03,52,14.20
2017,06,25,03,53,14.20
2017,06,25,03,54,14.20
2017,06,25,03,55,14.20
2017,06,25,03,56,14.20
2017,06,25,03,57,14.20
2017,06,25,03,58,14.20
2017,06,25,03,59,14.20
2017,06,25,04,00,14.20
2017,06,25,04,01,14.20
2017,06,25,04,02,14.20
2017,06,25,04,03,14.20
2017,06,25,04,04,14.20
2017,06,25,04,05,14.20
2017,06,25,04,06,14.20
2017,06,25,04,07,14.20
2017,06,25,04,08,14.20
2017,06,25,04,09,14.20
2017,06,25,04,10,14.20
2017,06,25,04,11,14.20
2017,06,25,04,12,14.20
2017,06,25,04,13,14.20
2017,06,25,04,14,14.20
2017,06,25,04,15,14.20
2017,06,25,04,16,14.20
2017,06,25,04,17,14.20
2017,06,25,04,18,14.20
2017,06,25,04,19,14.10
2017,06,25,04,20,14.10
2017,06,25,04,21,14.10
2017,06,25,04,22,14.10
2017,06,25,04,23,14.10
2017,06,25,04,24,14.10
2017,06,25,04,25,14.10
2017,06,25,04,26,14.10
2017,06,25,04,27,14.10
2017,06,25,04,28,14.10
2017,06,25,04,29,14.00
2017,06,25,04,30,14.00
2017,06,25,04,31,14.00
2017,06,25,04,32,14.00
2017,06,25,04,33,14.00
2017,06,25,04,34,14.00
2017,06,25,04,35,14.00
2017,06,25,04,36,14.00
2017,06,25,04,37,13.90
2017,06,25,04,38,13.90
2017,06,25,04,39,13.90
2017,06,25,04,40,13.90
2017,06,25,04,41,13.90
2017,06,25,04,42,13.90
2017,06,25,04,43,13.90
2017,06,25,04,44,13.80
2017,06,25,04,45,13.80
2017,06,25,04,46,13.80
2017,06,25,04,47,13.80
2017,06,25,04,48,13.80
2017,06,25,04,49,13.80
2017,06,25,04,50,13.80
2017,06,25,04,51,13.80
2017,06,25,04,52,13.80
2017,06,25,04,53,13.80
2017,06,25,04,54,13.80
2017,06,25,04,55,13.80
2017,06,25,04,56,13.80
2017,06,25,04,57,13.70
2017,06,25,04,58,13.70
2017,06,25,04,59,13.70
2017,06,25,05,00,13.70
2017,06,25,05,01,13.70
2017,06,25,05,02,13.70
2017,06,25,05,03,13.70
2017,06,25,05,04,13.60
2017,06,25,05,05,13.60
2017,06,25,05,06,13.60
2017,06,25,05,07,13.60
2017,06,25,05,08,13.60
2017,06,25,05,09,13.60
2017,06,25,05,10,13.60
2017,06,25,05,11,13.60
2017,06,25,05,12,13.60
2017,06,25,05,13,13.60
2017,06,25,05,14,13.60
2017,06,25,05,15,13.60
2017,06,25,05,16,13.60
2017,06,25,05,17,13.60
2017,06,25,05,18,13.60
2017,06,25,05,19,13.70
2017,06,25,05,20,13.70
2017,06,25,05,21,13.70
2017,06,25,05,22,13.60
2017,06,25,05,23,13.60
2017,06,25,05,24,13.60
2017,06,25,05,25,13.50
2017,06,25,05,26,13.50
2017,06,25,05,27,13.40
2017,06,25,05,28,13.30
2017,06,25,05,29,13.30
2017,06,25,05,30,13.20
2017,06,25,05,31,13.20
2017,06,25,05,32,13.10
2017,06,25,05,33,13.10
2017,06,25,05,34,13.10
2017,06,25,05,35,13.10
2017,06,25,05,36,13.10
2017,06,25,05,37,13.10
2017,06,25,05,38,13.10
2017,06,25,05,39,13.10
2017,06,25,05,40,13.20
2017,06,25,05,41,13.20
2017,06,25,05,42,13.20
2017,06,25,05,43,13.20
2017,06,25,05,44,13.20
2017,06,25,05,45,13.20
2017,06,25,05,46,13.20
2017,06,25,05,47,13.20
2017,06,25,05,48,13.20
2017,06,25,05,49,13.20
2017,06,25,05,50,13.30
2017,06,25,05,51,13.30
2017,06,25,05,52,13.30
2017,06,25,05,53,13.30
2017,06,25,05,54,13.30
2017,06,25,05,55,13.40
2017,06,25,05,56,13.40
2017,06,25,05,57,13.40
2017,06,25,05,58,13.50
2017,06,25,05,59,13.50
2017,06,25,06,00,13.50
2017,06,25,06,01,13.60
2017,06,25,06,02,13.60
2017,06,25,06,03,13.60
2017,06,25,06,04,13.70
2017,06,25,06,05,13.70
2017,06,25,06,06,13.80
2017,06,25,06,07,13.80
2017,06,25,06,08,13.80
2017,06,25,06,09,13.90
2017,06,25,06,10,14.00
2017,06,25,06,11,14.00
2017,06,25,06,12,14.10
2017,06,25,06,13,14.10
2017,06,25,06,14,14.00
2017,06,25,06,15,14.00
2017,06,25,06,16,14.10
2017,06,25,06,17,14.00
2017,06,25,06,18,14.00
2017,06,25,06,19,14.00
2017,06,25,06,20,14.10
2017,06,25,06,21,14.10
2017,06,25,06,22,14.10
2017,06,25,06,23,14.10
2017,06,25,06,24,14.10
2017,06,25,06,25,14.10
2017,06,25,06,26,14.20
2017,06,25,06,27,14.20
2017,06,25,06,28,14.30
2017,06,25,06,29,14.30
2017,06,25,06,30,14.30
2017,06,25,06,31,14.30
2017,06,25,06,32,14.40
2017,06,25,06,33,14.40
2017,06,25,06,34,14.40
2017,06,25,06,35,14.50
2017,06,25,06,36,14.60
2017,06,25,06,37,14.60
2017,06,25,06,38,14.70
2017,06,25,06,39,14.80
2017,06,25,06,40,14.90
2017,06,25,06,41,14.90
2017,06,25,06,42,15.00
2017,06,25,06,43,15.10
2017,06,25,06,44,15.20
2017,06,25,06,45,15.30
2017,06,25,06,46,15.40
2017,06,25,06,47,15.40
2017,06,25,06,48,15.50
2017,06,25,06,49,15.60
2017,06,25,06,50,15.70
2017,06,25,06,51,15.70
2017,06,25,06,52,15.80
2017,06,25,06,53,15.80
2017,06,25,06,54,15.90
2017,06,25,06,55,15.90
2017,06,25,06,56,16.00
2017,06,25,06,57,16.00
2017,06,25,06,58,16.10
2017,06,25,06,59,16.20
2017,06,25,07,00,16.30
2017,06,25,07,01,16.40
2017,06,25,07,02,16.60
2017,06,25,07,03,16.70
2017,06,25,07,04,16.80
2017,06,25,07,05,16.90
2017,06,25,07,06,17.00
2017,06,25,07,07,17.00
2017,06,25,07,08,17.10
2017,06,25,07,09,17.20
2017,06,25,07,10,17.30
2017,06,25,07,11,17.50
2017,06,25,07,12,17.60
2017,06,25,07,13,17.70
2017,06,25,07,14,17.80
2017,06,25,07,15,17.90
2017,06,25,07,16,17.90
2017,06,25,07,17,18.00
2017,06,25,07,18,18.10
2017,06,25,07,19,18.10
2017,06,25,07,20,18.10
2017,06,25,07,21,18.20
2017,06,25,07,22,18.20
2017,06,25,07,23,18.30
2017,06,25,07,24,18.40
2017,06,25,07,25,18.40
2017,06,25,07,26,18.50
2017,06,25,07,27,18.50
2017,06,25,07,28,18.60
2017,06,25,07,29,18.60
2017,06,25,07,30,18.70
2017,06,25,07,31,18.70
2017,06,25,07,32,18.70
2017,06,25,07,33,18.70
2017,06,25,07,34,18.70
2017,06,25,07,35,18.70
2017,06,25,07,36,18.70
2017,06,25,07,37,18.70
2017,06,25,07,38,18.80
2017,06,25,07,39,18.80
2017,06,25,07,40,18.80
2017,06,25,07,41,18.80
2017,06,25,07,42,18.80
2017,06,25,07,43,18.80
2017,06,25,07,44,18.80
2017,06,25,07,45,18.80
2017,06,25,07,46,18.80
2017,06,25,07,47,18.80
2017,06,25,07,48,18.80
2017,06,25,07,49,18.80
2017,06,25,07,50,18.80
2017,06,25,07,51,18.80
2017,06,25,07,52,18.90
2017,06,25,07,53,19.00
2017,06,25,07,54,19.10
2017,06,25,07,55,19.20
2017,06,25,07,56,19.30
2017,06,25,07,57,19.40
2017,06,25,07,58,19.50
2017,06,25,07,59,19.70
2017,06,25,08,00,19.80
2017,06,25,08,01,20.00
2017,06,25,08,02,20.20
2017,06,25,08,03,20.30
2017,06,25,08,04,20.50
2017,06,25,08,05,20.70
2017,06,25,08,06,20.90
2017,06,25,08,07,21.00
2017,06,25,08,08,21.20
2017,06,25,08,09,21.30
2017,06,25,08,10,21.40
2017,06,25,08,11,21.50
2017,06,25,08,12,21.70
2017,06,25,08,13,21.80
2017,06,25,08,14,22.00
2017,06,25,08,15,22.20
2017,06,25,08,16,22.30
2017,06,25,08,17,22.50
2017,06,25,08,18,22.60
2017,06,25,08,19,22.80
2017,06,25,08,20,22.90
2017,06,25,08,21,23.00
2017,06,25,08,22,23.00
2017,06,25,08,23,23.10
2017,06,25,08,24,23.20
2017,06,25,08,25,23.20
2017,06,25,08,26,23.30
2017,06,25,08,27,23.40
2017,06,25,08,28,23.40
2017,06,25,08,29,23.60
2017,06,25,08,30,23.70
2017,06,25,08,31,23.90
2017,06,25,08,32,24.00
2017,06,25,08,33,24.20
2017,06,25,08,34,24.30
2017,06,25,08,35,24.40
2017,06,25,08,36,24.50
2017,06,25,08,37,24.70
2017,06,25,08,38,24.80
2017,06,25,08,39,24.90
2017,06,25,08,40,25.10
2017,06,25,08,41,25.20
2017,06,25,08,42,25.30
2017,06,25,08,43,25.50
2017,06,25,08,44,25.60
2017,06,25,08,45,25.70
2017,06,25,08,46,25.80
2017,06,25,08,47,25.80
2017,06,25,08,48,25.90
2017,06,25,08,49,25.90
2017,06,25,08,50,26.00
2017,06,25,08,51,26.10
2017,06,25,08,52,26.20
2017,06,25,08,53,26.30
2017,06,25,08,54,26.30
2017,06,25,08,55,26.40
2017,06,25,08,56,26.50
2017,06,25,08,57,26.60
2017,06,25,08,58,26.70
2017,06,25,08,59,26.80
2017,06,25,09,00,26.80
2017,06,25,09,01,26.90
2017,06,25,09,02,27.00
2017,06,25,09,03,27.10
2017,06,25,09,04,27.10
2017,06,25,09,05,27.20
2017,06,25,09,06,27.30
2017,06,25,09,07,27.30
2017,06,25,09,08,27.30
2017,06,25,09,09,27.30
2017,06,25,09,10,27.30
2017,06,25,09,11,27.30
2017,06,25,09,12,27.20
2017,06,25,09,13,27.20
2017,06,25,09,14,27.20
2017,06,25,09,15,27.20
2017,06,25,09,16,27.20
2017,06,25,09,17,27.30
2017,06,25,09,18,27.30
2017,06,25,09,19,27.20
2017,06,25,09,20,27.00
2017,06,25,09,21,26.90
2017,06,25,09,22,26.80
2017,06,25,09,23,26.80
2017,06,25,09,24,26.70
2017,06,25,09,25,26.80
2017,06,25,09,26,26.80
2017,06,25,09,27,26.80
2017,06,25,09,28,26.90
2017,06,25,09,29,26.90
2017,06,25,09,30,27.00
2017,06,25,09,31,27.10
2017,06,25,09,32,27.10
2017,06,25,09,33,27.10
2017,06,25,09,34,27.10
2017,06,25,09,35,27.10
2017,06,25,09,36,27.20
2017,06,25,09,37,27.30
2017,06,25,09,38,27.40
2017,06,25,09,39,27.50
2017,06,25,09,40,27.60
2017,06,25,09,41,27.60
2017,06,25,09,42,27.60
2017,06,25,09,43,27.70
2017,06,25,09,44,27.70
2017,06,25,09,45,27.70
2017,06,25,09,46,27.70
2017,06,25,09,47,27.80
2017,06,25,09,48,27.80
2017,06,25,09,49,27.80
2017,06,25,09,50,27.80
2017,06,25,09,51,27.90
2017,06,25,09,52,28.00
2017,06,25,09,53,28.00
2017,06,25,09,54,28.00
2017,06,25,09,55,28.00
2017,06,25,09,56,28.00
2017,06,25,09,57,28.00
2017,06,25,09,58,28.00
2017,06,25,09,59,28.00
2017,06,25,10,00,28.10
2017,06,25,10,01,28.10
2017,06,25,10,02,28.20
2017,06,25,10,03,28.20
2017,06,25,10,04,28.20
2017,06,25,10,05,28.20
2017,06,25,10,06,28.30
2017,06,25,10,07,28.40
2017,06,25,10,08,28.40
2017,06,25,10,09,28.40
2017,06,25,10,10,28.40
2017,06,25,10,11,28.30
2017,06,25,10,12,28.30
2017,06,25,10,13,28.30
2017,06,25,10,14,28.30
2017,06,25,10,15,28.30
2017,06,25,10,16,28.20
2017,06,25,10,17,28.20
2017,06,25,10,18,28.20
2017,06,25,10,19,28.20
2017,06,25,10,20,28.30
2017,06,25,10,21,28.30
2017,06,25,10,22,28.40
2017,06,25,10,23,28.40
2017,06,25,10,24,28.50
2017,06,25,10,25,28.50
2017,06,25,10,26,28.50
2017,06,25,10,27,28.60
2017,06,25,10,28,28.60
2017,06,25,10,29,28.60
2017,06,25,10,30,28.60
2017,06,25,10,31,28.60
2017,06,25,10,32,28.60
2017,06,25,10,33,28.60
2017,06,25,10,34,28.60
2017,06,25,10,35,28.60
2017,06,25,10,36,28.60
2017,06,25,10,37,28.60
2017,06,25,10,38,28.60
2017,06,25,10,39,28.50
2017,06,25,10,40,28.50
2017,06,25,10,41,28.50
2017,06,25,10,42,28.50
2017,06,25,10,43,28.60
2017,06,25,10,44,28.60
2017,06,25,10,45,28.70
2017,06,25,10,46,28.70
2017,06,25,10,47,28.70
2017,06,25,10,48,28.80
2017,06,25,10,49,28.80
2017,06,25,10,50,28.80
2017,06,25,10,51,28.80
2017,06,25,10,52,28.80
2017,06,25,10,53,28.80
2017,06,25,10,54,28.80
2017,06,25,10,55,28.80
2017,06,25,10,56,28.80
2017,06,25,10,57,28.90
2017,06,25,10,58,28.90
2017,06,25,10,59,28.90
2017,06,25,11,00,28.90
2017,06,25,11,01,29.00
2017,06,25,11,02,29.00
2017,06,25,11,03,29.10
2017,06,25,11,04,29.10
2017,06,25,11,05,29.00
2017,06,25,11,06,29.00
2017,06,25,11,07,28.90
2017,06,25,11,08,28.90
2017,06,25,11,09,28.80
2017,06,25,11,10,28.80
2017,06,25,11,11,28.70
2017,06,25,11,12,28.60
2017,06,25,11,13,28.50
2017,06,25,11,14,28.40
2017,06,25,11,15,28.40
2017,06,25,11,16,28.30
2017,06,25,11,17,28.20
2017,06,25,11,18,28.00
2017,06,25,11,19,27.90
2017,06,25,11,20,27.90
2017,06,25,11,21,27.90
2017,06,25,11,22,27.90
2017,06,25,11,23,27.90
2017,06,25,11,24,27.90
2017,06,25,11,25,27.80
2017,06,25,11,26,27.80
2017,06,25,11,27,27.60
2017,06,25,11,28,27.50
2017,06,25,11,29,27.40
2017,06,25,11,30,27.40
2017,06,25,11,31,27.50
2017,06,25,11,32,27.60
2017,06,25,11,33,27.70
2017,06,25,11,34,27.80
2017,06,25,11,35,27.80
2017,06,25,11,36,27.80
2017,06,25,11,37,27.80
2017,06,25,11,38,27.80
2017,06,25,11,39,27.90
2017,06,25,11,40,28.00
2017,06,25,11,41,28.10
2017,06,25,11,42,28.20
2017,06,25,11,43,28.30
2017,06,25,11,44,28.40
2017,06,25,11,45,28.50
2017,06,25,11,46,28.60
2017,06,25,11,47,28.60
2017,06,25,11,48,28.60
2017,06,25,11,49,28.70
2017,06,25,11,50,28.70
2017,06,25,11,51,28.60
2017,06,25,11,52,28.60
2017,06,25,11,53,28.60
2017,06,25,11,54,28.60
2017,06,25,11,55,28.60
2017,06,25,11,56,28.60
2017,06,25,11,57,28.60
2017,06,25,11,58,28.60
2017,06,25,11,59,28.70
2017,06,25,12,00,28.70
2017,06,25,12,01,28.80
2017,06,25,12,02,28.90
2017,06,25,12,03,29.00
2017,06,25,12,04,29.20
2017,06,25,12,05,29.30
2017,06,25,12,06,29.40
2017,06,25,12,07,29.40
2017,06,25,12,08,29.40
2017,06,25,12,09,29.40
2017,06,25,12,10,29.40
2017,06,25,12,11,29.40
2017,06,25,12,12,29.50
2017,06,25,12,13,29.60
2017,06,25,12,14,29.60
2017,06,25,12,15,29.60
2017,06,25,12,16,29.50
2017,06,25,12,17,29.50
2017,06,25,12,18,29.50
2017,06,25,12,19,29.60
2017,06,25,12,20,29.60
2017,06,25,12,21,29.60
2017,06,25,12,22,29.60
2017,06,25,12,23,29.70
2017,06,25,12,24,29.70
2017,06,25,12,25,29.70
2017,06,25,12,26,29.80
2017,06,25,12,27,29.90
2017,06,25,12,28,29.90
2017,06,25,12,29,30.00
2017,06,25,12,30,30.10
2017,06,25,12,31,30.20
2017,06,25,12,32,30.30
2017,06,25,12,33,30.30
2017,06,25,12,34,30.30
2017,06,25,12,35,30.40
2017,06,25,12,36,30.40
2017,06,25,12,37,30.50
2017,06,25,12,38,30.50
2017,06,25,12,39,30.50
2017,06,25,12,40,30.50
2017,06,25,12,41,30.40
2017,06,25,12,42,30.30
2017,06,25,12,43,30.30
2017,06,25,12,44,30.30
2017,06,25,12,45,30.30
2017,06,25,12,46,30.20
2017,06,25,12,47,30.00
2017,06,25,12,48,29.90
2017,06,25,12,49,29.70
2017,06,25,12,50,29.50
2017,06,25,12,51,29.30
2017,06,25,12,52,29.20
2017,06,25,12,53,29.10
2017,06,25,12,54,29.00
2017,06,25,12,55,28.90
2017,06,25,12,56,29.00
2017,06,25,12,57,29.00
2017,06,25,12,58,29.10
2017,06,25,12,59,29.10
2017,06,25,13,00,29.20
2017,06,25,13,01,29.30
2017,06,25,13,02,29.40
2017,06,25,13,03,29.50
2017,06,25,13,04,29.60
2017,06,25,13,05,29.70
2017,06,25,13,06,29.70
2017,06,25,13,07,29.70
2017,06,25,13,08,29.70
2017,06,25,13,09,29.70
2017,06,25,13,10,29.70
2017,06,25,13,11,29.80
2017,06,25,13,12,29.90
2017,06,25,13,13,30.00
2017,06,25,13,14,30.10
2017,06,25,13,15,30.10
2017,06,25,13,16,30.00
2017,06,25,13,17,30.00
2017,06,25,13,18,30.00
2017,06,25,13,19,30.00
2017,06,25,13,20,29.90
2017,06,25,13,21,29.90
2017,06,25,13,22,29.90
2017,06,25,13,23,29.90
2017,06,25,13,24,29.90
2017,06,25,13,25,29.90
2017,06,25,13,26,30.00
2017,06,25,13,27,30.10
2017,06,25,13,28,30.20
2017,06,25,13,29,30.30
2017,06,25,13,30,30.40
2017,06,25,13,31,30.50
2017,06,25,13,32,30.60
2017,06,25,13,33,30.70
2017,06,25,13,34,30.80
2017,06,25,13,35,30.90
2017,06,25,13,36,30.90
2017,06,25,13,37,30.80
2017,06,25,13,38,30.80
2017,06,25,13,39,30.80
2017,06,25,13,40,30.80
2017,06,25,13,41,30.80
2017,06,25,13,42,30.80
2017,06,25,13,43,30.80
2017,06,25,13,44,30.70
2017,06,25,13,45,30.70
2017,06,25,13,46,30.60
2017,06,25,13,47,30.60
2017,06,25,13,48,30.70
2017,06,25,13,49,30.70
2017,06,25,13,50,30.70
2017,06,25,13,51,30.80
2017,06,25,13,52,31.10
2017,06,25,13,53,31.10
2017,06,25,13,54,31.20
2017,06,25,13,55,31.20
2017,06,25,13,56,31.30
2017,06,25,13,57,31.40
2017,06,25,13,58,31.50
2017,06,25,13,59,31.50
2017,06,25,14,00,31.60
2017,06,25,14,01,31.60
2017,06,25,14,02,31.60
2017,06,25,14,03,31.60
2017,06,25,14,04,31.50
2017,06,25,14,05,31.50
2017,06,25,14,06,31.40
2017,06,25,14,07,31.50
2017,06,25,14,08,31.50
2017,06,25,14,09,31.50
2017,06,25,14,10,31.60
2017,06,25,14,11,31.50
2017,06,25,14,12,31.50
2017,06,25,14,13,31.50
2017,06,25,14,14,31.60
2017,06,25,14,15,31.60
2017,06,25,14,16,31.70
2017,06,25,14,17,31.60
2017,06,25,14,18,31.60
2017,06,25,14,19,31.50
2017,06,25,14,20,31.40
2017,06,25,14,21,31.40
2017,06,25,14,22,31.30
2017,06,25,14,23,31.20
2017,06,25,14,24,31.20
2017,06,25,14,25,31.20
2017,06,25,14,26,31.20
2017,06,25,14,27,31.10
2017,06,25,14,28,31.00
2017,06,25,14,29,30.90
2017,06,25,14,30,30.90
2017,06,25,14,31,30.90
2017,06,25,14,32,31.00
2017,06,25,14,33,31.00
2017,06,25,14,34,31.10
2017,06,25,14,35,31.10
2017,06,25,14,36,31.10
2017,06,25,14,37,31.00
2017,06,25,14,38,31.00
2017,06,25,14,39,30.80
2017,06,25,14,40,30.70
2017,06,25,14,41,30.60
2017,06,25,14,42,30.50
2017,06,25,14,43,30.40
2017,06,25,14,44,30.30
2017,06,25,14,45,30.10
2017,06,25,14,46,30.00
2017,06,25,14,47,29.90
2017,06,25,14,48,29.80
2017,06,25,14,49,29.70
2017,06,25,14,50,29.70
2017,06,25,14,51,29.70
2017,06,25,14,52,29.60
2017,06,25,14,53,29.60
2017,06,25,14,54,29.60
2017,06,25,14,55,29.60
2017,06,25,14,56,29.60
2017,06,25,14,57,29.60
2017,06,25,14,58,29.50
2017,06,25,14,59,29.50
2017,06,25,15,00,29.50
2017,06,25,15,01,29.50
2017,06,25,15,02,29.50
2017,06,25,15,03,29.50
2017,06,25,15,04,29.50
2017,06,25,15,05,29.50
2017,06,25,15,06,29.40
2017,06,25,15,07,29.40
2017,06,25,15,08,29.40
2017,06,25,15,09,29.40
2017,06,25,15,10,29.40
2017,06,25,15,11,29.30
2017,06,25,15,12,29.20
2017,06,25,15,13,29.10
2017,06,25,15,14,29.10
2017,06,25,15,15,29.00
2017,06,25,15,16,28.90
2017,06,25,15,17,28.90
2017,06,25,15,18,28.90
2017,06,25,15,19,28.80
2017,06,25,15,20,28.90
2017,06,25,15,21,28.80
2017,06,25,15,22,28.90
2017,06,25,15,23,28.90
2017,06,25,15,24,28.80
2017,06,25,15,25,28.80
2017,06,25,15,26,28.80
2017,06,25,15,27,28.80
2017,06,25,15,28,28.70
2017,06,25,15,29,28.70
2017,06,25,15,30,28.70
2017,06,25,15,31,28.70
2017,06,25,15,32,28.70
2017,06,25,15,33,28.70
2017,06,25,15,34,28.70
2017,06,25,15,35,28.70
2017,06,25,15,36,28.80
2017,06,25,15,37,28.80
2017,06,25,15,38,28.90
2017,06,25,15,39,28.90
2017,06,25,15,40,28.90
2017,06,25,15,41,28.90
2017,06,25,15,42,29.00
2017,06,25,15,43,29.00
2017,06,25,15,44,29.00
2017,06,25,15,45,29.00
2017,06,25,15,46,28.90
2017,06,25,15,47,28.90
2017,06,25,15,48,28.90
2017,06,25,15,49,28.90
2017,06,25,15,50,28.90
2017,06,25,15,51,28.90
2017,06,25,15,52,28.90
2017,06,25,15,53,28.90
2017,06,25,15,54,28.90
2017,06,25,15,55,28.90
2017,06,25,15,56,29.00
2017,06,25,15,57,29.00
2017,06,25,15,58,29.10
2017,06,25,15,59,29.20
2017,06,25,16,00,29.20
2017,06,25,16,01,29.30
2017,06,25,16,02,29.30
2017,06,25,16,03,29.40
2017,06,25,16,04,29.40
2017,06,25,16,05,29.50
2017,06,25,16,06,29.60
2017,06,25,16,07,29.70
2017,06,25,16,08,29.80
2017,06,25,16,09,29.80
2017,06,25,16,10,29.90
2017,06,25,16,11,30.00
2017,06,25,16,12,30.10
2017,06,25,16,13,30.10
2017,06,25,16,14,30.20
2017,06,25,16,15,30.30
2017,06,25,16,16,30.30
2017,06,25,16,17,30.30
2017,06,25,16,18,30.30
2017,06,25,16,19,30.20
2017,06,25,16,20,30.10
2017,06,25,16,21,30.00
2017,06,25,16,22,30.00
2017,06,25,16,23,29.90
2017,06,25,16,24,29.90
2017,06,25,16,25,29.90
2017,06,25,16,26,29.90
2017,06,25,16,27,29.90
2017,06,25,16,28,29.90
2017,06,25,16,29,30.00
2017,06,25,16,30,30.00
2017,06,25,16,31,30.10
2017,06,25,16,32,30.20
2017,06,25,16,33,30.30
2017,06,25,16,34,30.30
2017,06,25,16,35,30.40
2017,06,25,16,36,30.40
2017,06,25,16,37,30.40
2017,06,25,16,38,30.40
2017,06,25,16,39,30.40
2017,06,25,16,40,30.50
2017,06,25,16,41,30.50
2017,06,25,16,42,30.50
2017,06,25,16,43,30.50
2017,06,25,16,44,30.50
2017,06,25,16,45,30.50
2017,06,25,16,46,30.50
2017,06,25,16,47,30.50
2017,06,25,16,48,30.60
2017,06,25,16,49,30.60
2017,06,25,16,50,30.60
2017,06,25,16,51,30.60
2017,06,25,16,52,30.70
2017,06,25,16,53,30.70
2017,06,25,16,54,30.70
2017,06,25,16,55,30.80
2017,06,25,16,56,30.80
2017,06,25,16,57,30.90
2017,06,25,16,58,31.00
2017,06,25,16,59,31.00
2017,06,25,17,00,31.10
2017,06,25,17,01,31.10
2017,06,25,17,02,31.10
2017,06,25,17,03,31.10
2017,06,25,17,04,31.10
2017,06,25,17,05,31.10
2017,06,25,17,06,31.10
2017,06,25,17,07,31.00
2017,06,25,17,08,30.90
2017,06,25,17,09,30.80
2017,06,25,17,10,30.80
2017,06,25,17,11,30.70
2017,06,25,17,12,30.60
2017,06,25,17,13,30.50
2017,06,25,17,14,30.50
2017,06,25,17,15,30.40
2017,06,25,17,16,30.30
2017,06,25,17,17,30.20
2017,06,25,17,18,30.20
2017,06,25,17,19,30.10